"Period start","avg(HW err(1)/warn(2) (#))","avg(Visibility (m))","avg(Weather code (#))","avg(Precip intensity (mm/h))","min(HW err(1)/warn(2) (#))","max(HW err(1)/warn(2) (#))","std(HW err(1)/warn(2) (#))","med(HW err(1)/warn(2) (#))","min(Visibility (m))","max(Visibility (m))","std(Visibility (m))","med(Visibility (m))","min(Weather code (#))","max(Weather code (#))","std(Weather code (#))","med(Weather code (#))","min(Precip intensity (mm/h))","max(Precip intensity (mm/h))","std(Precip intensity (mm/h))","med(Precip intensity (mm/h))"
2014-10-18 00:00:00,2,48300,0,0.00,2,2,0,2,38424,50000,3485,50000,0,0,0,0,0.00,0.00,0.00,0.00
2014-10-18 00:10:00,2,41323,30,0.00,2,2,0,2,32220,50000,4996,41726,0,78,37,0,0.00,0.00,0.00,0.00
2014-10-18 00:20:00,2,37847,78,0.00,2,2,0,2,31255,44848,4913,38156,78,78,0,78,0.00,0.00,0.00,0.00
2014-10-18 00:30:00,2,46781,8,0.00,2,2,0,2,35197,50000,4689,50000,0,78,23,0,0.00,0.00,0.00,0.00
2014-10-18 00:40:00,2,48106,0,0.00,2,2,0,2,41836,50000,2769,50000,0,0,0,0,0.00,0.00,0.00,0.00
2014-10-18 00:50:00,2,45324,0,0.00,2,2,0,2,34990,50000,5110,46599,0,0,0,0,0.00,0.00,0.00,0.00
2014-10-18 01:00:00,2,40150,0,0.00,2,2,0,2,22546,50000,9206,42896,0,0,0,0,0.00,0.00,0.00,0.00
2014-10-18 01:10:00,2,39562,0,0.00,2,2,0,2,23585,50000,9598,42198,0,0,0,0,0.00,0.00,0.00,0.00
2014-10-18 01:20:00,2,45023,0,0.00,2,2,0,2,39028,50000,4433,44574,0,0,0,0,0.00,0.00,0.00,0.00
2014-10-18 01:30:00,2,40986,0,0.00,2,2,0,2,28603,50000,7417,41607,0,0,0,0,0.00,0.00,0.00,0.00
2014-10-18 01:40:00,2,40985,0,0.00,2,2,0,2,30619,50000,5994,40041,0,0,0,0,0.00,0.00,0.00,0.00
2014-10-18 01:50:00,2,40430,0,0.00,2,2,0,2,31148,49705,4991,40093,0,0,0,0,0.00,0.00,0.00,0.00
2014-10-18 02:00:00,2,44970,0,0.00,2,2,0,2,37654,50000,4436,46878,0,0,0,0,0.00,0.00,0.00,0.00
2014-10-18 02:10:00,2,35299,0,0.00,2,2,0,2,27100,41904,5200,36910,0,0,0,0,0.00,0.00,0.00,0.00
2014-10-18 02:20:00,2,43550,0,0.00,2,2,0,2,22867,50000,9211,47937,0,0,0,0,0.00,0.00,0.00,0.00
2014-10-18 02:30:00,2,35478,0,0.00,2,2,0,2,28757,48081,5392,35728,0,0,0,0,0.00,0.00,0.00,0.00
2014-10-18 02:40:00,2,43083,0,0.00,2,2,0,2,29850,50000,7263,45580,0,0,0,0,0.00,0.00,0.00,0.00
2014-10-18 02:50:00,2,43152,0,0.00,2,2,0,2,23069,50000,10014,49671,0,0,0,0,0.00,0.00,0.00,0.00
2014-10-18 03:00:00,2,44606,0,0.00,2,2,0,2,37695,50000,3672,44372,0,0,0,0,0.00,0.00,0.00,0.00
2014-10-18 03:10:00,2,44764,0,0.00,2,2,0,2,33908,50000,6187,47640,0,0,0,0,0.00,0.00,0.00,0.00
2014-10-18 03:20:00,2,48087,0,0.00,2,2,0,2,40199,50000,3239,49621,0,0,0,0,0.00,0.00,0.00,0.00
2014-10-18 03:30:00,2,47591,0,0.00,2,2,0,2,42499,50000,2865,49027,0,0,0,0,0.00,0.00,0.00,0.00
2014-10-18 03:40:00,2,47573,0,0.00,2,2,0,2,38290,50000,3574,49210,0,0,0,0,0.00,0.00,0.00,0.00
2014-10-18 03:50:00,2,45115,0,0.00,2,2,0,2,40333,50000,3384,44058,0,0,0,0,0.00,0.00,0.00,0.00
2014-10-18 04:00:00,2,46392,0,0.00,2,2,0,2,40238,50000,3367,47124,0,0,0,0,0.00,0.00,0.00,0.00
2014-10-18 04:10:00,2,23217,0,0.00,2,2,0,2,14195,42212,8862,20084,0,0,0,0,0.00,0.00,0.00,0.00
2014-10-18 04:20:00,2,34093,0,0.00,2,2,0,2,25636,44654,6194,32778,0,0,0,0,0.00,0.00,0.00,0.00
2014-10-18 04:30:00,2,46514,0,0.00,2,2,0,2,43173,50000,2608,47345,0,0,0,0,0.00,0.00,0.00,0.00
2014-10-18 04:40:00,2,49799,0,0.00,2,2,0,2,47991,50000,603,50000,0,0,0,0,0.00,0.00,0.00,0.00
2014-10-18 04:50:00,2,47520,0,0.00,2,2,0,2,40782,50000,3397,49373,0,0,0,0,0.00,0.00,0.00,0.00
2014-10-18 05:00:00,2,48880,0,0.00,2,2,0,2,44296,50000,1975,49908,0,0,0,0,0.00,0.00,0.00,0.00
2014-10-18 05:10:00,2,43741,0,0.00,2,2,0,2,34677,50000,5651,45704,0,0,0,0,0.00,0.00,0.00,0.00
2014-10-18 05:20:00,2,32286,0,0.00,2,2,0,2,21800,37935,4818,32376,0,0,0,0,0.00,0.00,0.00,0.00
2014-10-18 05:30:00,2,26976,0,0.00,2,2,0,2,19408,36718,4686,26439,0,0,0,0,0.00,0.00,0.00,0.00
2014-10-18 05:40:00,2,16855,0,0.00,2,2,0,2,14853,18716,1126,17112,0,0,0,0,0.00,0.00,0.00,0.00
2014-10-18 05:50:00,2,12973,0,0.00,2,2,0,2,9875,16365,1995,13344,0,0,0,0,0.00,0.00,0.00,0.00
2014-10-18 06:00:00,2,16428,0,0.00,2,2,0,2,9926,24208,4063,15736,0,0,0,0,0.00,0.00,0.00,0.00
2014-10-18 06:10:00,2,18864,0,0.00,2,2,0,2,12360,22732,2981,19178,0,0,0,0,0.00,0.00,0.00,0.00
2014-10-18 06:20:00,2,14392,0,0.00,2,2,0,2,11319,19084,2254,14156,0,0,0,0,0.00,0.00,0.00,0.00
2014-10-18 06:30:00,2,35103,0,0.00,2,2,0,2,18931,48392,8952,36106,0,0,0,0,0.00,0.00,0.00,0.00
2014-10-18 06:40:00,2,49894,0,0.00,2,2,0,2,49114,50000,265,50000,0,0,0,0,0.00,0.00,0.00,0.00
2014-10-18 06:50:00,2,50000,0,0.00,2,2,0,2,50000,50000,0,50000,0,0,0,0,0.00,0.00,0.00,0.00
2014-10-18 07:00:00,2,43396,0,0.00,2,2,0,2,29019,50000,6895,44576,0,0,0,0,0.00,0.00,0.00,0.00
2014-10-18 07:10:00,2,21756,0,0.00,2,2,0,2,12925,34055,7792,19424,0,0,0,0,0.00,0.00,0.00,0.00
2014-10-18 07:20:00,2,15989,0,0.00,2,2,0,2,10981,22913,4163,16080,0,0,0,0,0.00,0.00,0.00,0.00
2014-10-18 07:30:00,2,34960,0,0.00,2,2,0,2,22077,50000,10684,32013,0,0,0,0,0.00,0.00,0.00,0.00
2014-10-18 07:40:00,2,49879,0,0.00,2,2,0,2,49043,50000,285,50000,0,0,0,0,0.00,0.00,0.00,0.00
2014-10-18 07:50:00,2,14613,37,0.08,2,2,0,2,2873,50000,16710,5948,0,77,37,36,0.00,0.30,0.11,0.03
2014-10-18 08:00:00,2,3634,71,0.01,2,2,0,2,2959,4359,376,3692,54,77,9,77,0.00,0.05,0.02,0.00
2014-10-18 08:10:00,2,3115,22,0.01,2,2,0,2,2839,3405,175,3047,10,71,24,10,0.00,0.05,0.02,0.00
2014-10-18 08:20:00,2,3162,10,0.00,2,2,0,2,2730,3613,256,3176,10,10,0,10,0.00,0.00,0.00,0.00
2014-10-18 08:30:00,2,3286,51,0.02,2,2,0,2,2620,3791,378,3375,10,77,28,62,0.00,0.05,0.02,0.00
2014-10-18 08:40:00,2,3765,10,0.00,2,2,0,2,3172,4610,425,3702,10,10,0,10,0.00,0.00,0.00,0.00
2014-10-18 08:50:00,2,4638,10,0.00,2,2,0,2,4079,5087,333,4664,10,10,0,10,0.00,0.00,0.00,0.00
2014-10-18 09:00:00,2,4510,10,0.00,2,2,0,2,3801,5206,417,4590,10,10,0,10,0.00,0.00,0.00,0.00
2014-10-18 09:10:00,2,4818,10,0.00,2,2,0,2,3908,5446,498,4976,10,10,0,10,0.00,0.00,0.00,0.00
2014-10-18 09:20:00,2,4460,10,0.00,2,2,0,2,4041,5158,294,4392,10,10,0,10,0.00,0.00,0.00,0.00
2014-10-18 09:30:00,2,5257,10,0.00,2,2,0,2,4334,5904,526,5351,10,10,0,10,0.00,0.00,0.00,0.00
2014-10-18 09:40:00,2,5062,10,0.00,2,2,0,2,4609,5516,303,5102,10,10,0,10,0.00,0.00,0.00,0.00
2014-10-18 09:50:00,2,4025,10,0.00,2,2,0,2,3109,4918,654,3799,10,10,0,10,0.00,0.00,0.00,0.00
2014-10-18 10:00:00,2,4034,10,0.00,2,2,0,2,3161,4860,563,3970,10,10,0,10,0.00,0.00,0.00,0.00
2014-10-18 10:10:00,2,3504,10,0.00,2,2,0,2,3021,4041,320,3516,10,10,0,10,0.00,0.00,0.00,0.00
2014-10-18 10:20:00,2,3034,10,0.00,2,2,0,2,2231,3622,391,3132,10,10,0,10,0.00,0.00,0.00,0.00
2014-10-18 10:30:00,2,3317,10,0.00,2,2,0,2,2514,4716,750,3044,10,10,0,10,0.00,0.00,0.00,0.00
2014-10-18 10:40:00,2,3292,10,0.00,2,2,0,2,2991,3999,271,3235,10,10,0,10,0.00,0.00,0.00,0.00
2014-10-18 10:50:00,2,3402,46,0.03,2,2,0,2,2379,4547,666,3382,10,71,20,54,0.00,0.05,0.03,0.03
2014-10-18 11:00:00,2,2716,63,0.07,2,2,0,2,2423,3029,205,2746,54,77,11,54,0.05,0.10,0.02,0.05
2014-10-18 11:10:00,2,3388,23,0.00,2,2,0,2,2558,4329,574,3445,10,54,20,10,0.00,0.00,0.00,0.00
2014-10-18 11:20:00,2,4547,10,0.00,2,2,0,2,2837,7190,1257,4374,10,10,0,10,0.00,0.00,0.00,0.00
2014-10-18 11:30:00,2,6165,29,0.04,2,2,0,2,2866,9334,2183,6344,10,77,29,10,0.00,0.20,0.06,0.00
2014-10-18 11:40:00,2,6551,26,0.02,2,2,0,2,3512,10666,2441,5645,10,77,24,10,0.00,0.10,0.04,0.00
2014-10-18 11:50:00,2,9940,10,0.00,2,2,0,2,6425,15755,3147,8358,10,10,0,10,0.00,0.00,0.00,0.00
2014-10-18 12:00:00,2,6604,10,0.00,2,2,0,2,4181,12215,2040,5950,10,10,0,10,0.00,0.00,0.00,0.00
2014-10-18 12:10:00,2,5928,10,0.00,2,2,0,2,4030,10357,1673,5498,10,10,0,10,0.00,0.00,0.00,0.00
2014-10-18 12:20:00,2,9016,10,0.00,2,2,0,2,4438,20679,4683,7580,10,10,0,10,0.00,0.00,0.00,0.00
2014-10-18 12:30:00,2,5046,10,0.00,2,2,0,2,3373,7218,1332,4608,10,10,0,10,0.00,0.00,0.00,0.00
2014-10-18 12:40:00,2,13343,10,0.00,2,2,0,2,5037,36263,9111,10066,10,10,0,10,0.00,0.00,0.00,0.00
2014-10-18 12:50:00,2,8566,8,0.00,2,2,0,2,4213,14112,3731,7054,0,10,4,10,0.00,0.00,0.00,0.00
2014-10-18 13:00:00,2,7738,29,0.00,2,2,0,2,5254,18257,3932,6103,10,77,29,10,0.00,0.00,0.00,0.00
2014-10-18 13:10:00,2,14858,6,0.00,2,2,0,2,8628,21271,3127,15018,0,10,5,10,0.00,0.00,0.00,0.00
2014-10-18 13:20:00,2,27344,0,0.00,2,2,0,2,19440,41907,7135,25264,0,0,0,0,0.00,0.00,0.00,0.00
2014-10-18 13:30:00,2,21695,0,0.00,2,2,0,2,18139,27283,2865,20797,0,0,0,0,0.00,0.00,0.00,0.00
2014-10-18 13:40:00,2,35472,0,0.00,2,2,0,2,19142,50000,12572,37446,0,0,0,0,0.00,0.00,0.00,0.00
2014-10-18 13:50:00,2,47358,0,0.00,2,2,0,2,33560,50000,4982,50000,0,0,0,0,0.00,0.00,0.00,0.00
2014-10-18 14:00:00,2,35673,30,0.01,2,2,0,2,9449,50000,14819,41672,0,78,37,0,0.00,0.05,0.02,0.00
2014-10-18 14:10:00,2,49824,0,0.00,2,2,0,2,48942,50000,325,50000,0,0,0,0,0.00,0.00,0.00,0.00
2014-10-18 14:20:00,2,50000,0,0.00,2,2,0,2,50000,50000,0,50000,0,0,0,0,0.00,0.00,0.00,0.00
2014-10-18 14:30:00,2,49665,0,0.00,2,2,0,2,46651,50000,1005,50000,0,0,0,0,0.00,0.00,0.00,0.00
2014-10-18 14:40:00,2,49521,0,0.00,2,2,0,2,45538,50000,1331,50000,0,0,0,0,0.00,0.00,0.00,0.00
2014-10-18 14:50:00,2,50000,0,0.00,2,2,0,2,50000,50000,0,50000,0,0,0,0,0.00,0.00,0.00,0.00
2014-10-18 15:00:00,2,49946,0,0.00,2,2,0,2,49457,50000,163,50000,0,0,0,0,0.00,0.00,0.00,0.00
2014-10-18 15:10:00,2,43379,28,0.01,2,2,0,2,28968,50000,7987,47112,0,71,35,0,0.00,0.05,0.02,0.00
2014-10-18 15:20:00,2,43037,45,0.00,2,2,0,2,23892,50000,8474,46882,0,78,37,71,0.00,0.00,0.00,0.00
2014-10-18 15:30:00,2,43416,59,0.03,2,2,0,2,35064,50000,5930,44092,0,78,30,71,0.00,0.20,0.06,0.00
2014-10-18 15:40:00,2,46564,0,0.00,2,2,0,2,35194,50000,4746,48844,0,0,0,0,0.00,0.00,0.00,0.00
2014-10-18 15:50:00,2,44087,22,0.00,2,2,0,2,29948,50000,7826,48924,0,78,34,0,0.00,0.00,0.00,0.00
2014-10-18 16:00:00,2,46345,30,0.00,2,2,0,2,42435,50000,2681,46518,0,78,37,0,0.00,0.00,0.00,0.00
2014-10-18 16:10:00,2,45748,39,0.00,2,2,0,2,29375,50000,7182,50000,0,78,39,39,0.00,0.00,0.00,0.00
2014-10-18 16:20:00,2,35557,64,0.03,2,2,0,2,26632,49181,6744,35052,0,71,21,71,0.00,0.15,0.05,0.00
2014-10-18 16:30:00,2,33087,73,0.03,2,2,0,2,16945,45006,8779,35360,71,77,3,71,0.00,0.25,0.07,0.00
2014-10-18 16:40:00,2,42281,74,0.01,2,2,0,2,28923,50000,7478,45023,71,78,3,74,0.00,0.05,0.02,0.00
2014-10-18 16:50:00,2,44016,78,0.00,2,2,0,2,27535,50000,7646,48992,78,78,0,78,0.00,0.00,0.00,0.00
2014-10-18 17:00:00,2,46975,62,0.00,2,2,0,2,29967,50000,6260,50000,0,78,31,78,0.00,0.00,0.00,0.00
2014-10-18 17:10:00,2,50000,0,0.00,2,2,0,2,50000,50000,0,50000,0,0,0,0,0.00,0.00,0.00,0.00
2014-10-18 17:20:00,2,50000,0,0.00,2,2,0,2,50000,50000,0,50000,0,0,0,0,0.00,0.00,0.00,0.00
2014-10-18 17:30:00,2,49705,0,0.00,2,2,0,2,47048,50000,886,50000,0,0,0,0,0.00,0.00,0.00,0.00
2014-10-18 17:40:00,2,49899,0,0.00,2,2,0,2,49047,50000,285,50000,0,0,0,0,0.00,0.00,0.00,0.00
2014-10-18 17:50:00,2,47816,0,0.00,2,2,0,2,42382,50000,2283,47626,0,0,0,0,0.00,0.00,0.00,0.00
2014-10-18 18:00:00,2,49061,0,0.00,2,2,0,2,44974,50000,1834,50000,0,0,0,0,0.00,0.00,0.00,0.00
2014-10-18 18:10:00,2,49524,0,0.00,2,2,0,2,47219,50000,969,50000,0,0,0,0,0.00,0.00,0.00,0.00
2014-10-18 18:20:00,2,49307,0,0.00,2,2,0,2,45969,50000,1308,50000,0,0,0,0,0.00,0.00,0.00,0.00
2014-10-18 18:30:00,2,47808,0,0.00,2,2,0,2,39955,50000,3230,49944,0,0,0,0,0.00,0.00,0.00,0.00
2014-10-18 18:40:00,2,48574,0,0.00,2,2,0,2,42142,50000,2494,50000,0,0,0,0,0.00,0.00,0.00,0.00
2014-10-18 18:50:00,2,38670,0,0.00,2,2,0,2,32542,46222,4265,37026,0,0,0,0,0.00,0.00,0.00,0.00
2014-10-18 19:00:00,2,38944,0,0.00,2,2,0,2,26319,50000,8528,39646,0,0,0,0,0.00,0.00,0.00,0.00
2014-10-18 19:10:00,2,41606,0,0.00,2,2,0,2,31814,49560,5524,42758,0,0,0,0,0.00,0.00,0.00,0.00
2014-10-18 19:20:00,2,44783,0,0.00,2,2,0,2,33955,50000,5372,45557,0,0,0,0,0.00,0.00,0.00,0.00
2014-10-18 19:30:00,2,47373,0,0.00,2,2,0,2,43222,50000,2421,47600,0,0,0,0,0.00,0.00,0.00,0.00
2014-10-18 19:40:00,2,49674,0,0.00,2,2,0,2,46742,50000,977,50000,0,0,0,0,0.00,0.00,0.00,0.00
2014-10-18 19:50:00,2,49914,0,0.00,2,2,0,2,49292,50000,212,50000,0,0,0,0,0.00,0.00,0.00,0.00
2014-10-18 20:00:00,2,49256,0,0.00,2,2,0,2,46233,50000,1275,50000,0,0,0,0,0.00,0.00,0.00,0.00
2014-10-18 20:10:00,2,49288,0,0.00,2,2,0,2,47809,50000,731,49441,0,0,0,0,0.00,0.00,0.00,0.00
2014-10-18 20:20:00,2,49864,0,0.00,2,2,0,2,48890,50000,333,50000,0,0,0,0,0.00,0.00,0.00,0.00
2014-10-18 20:30:00,2,45067,0,0.00,2,2,0,2,42105,47896,1944,44276,0,0,0,0,0.00,0.00,0.00,0.00
2014-10-18 20:40:00,2,47224,0,0.00,2,2,0,2,41074,50000,3087,48754,0,0,0,0,0.00,0.00,0.00,0.00
2014-10-18 20:50:00,2,47323,0,0.00,2,2,0,2,40680,50000,3460,49044,0,0,0,0,0.00,0.00,0.00,0.00
2014-10-18 21:00:00,2,49881,0,0.00,2,2,0,2,49456,50000,199,50000,0,0,0,0,0.00,0.00,0.00,0.00
2014-10-18 21:10:00,2,48024,0,0.00,2,2,0,2,41462,50000,2603,49230,0,0,0,0,0.00,0.00,0.00,0.00
2014-10-18 21:20:00,2,48810,0,0.00,2,2,0,2,44566,50000,1927,50000,0,0,0,0,0.00,0.00,0.00,0.00
2014-10-18 21:30:00,2,49401,0,0.00,2,2,0,2,45842,50000,1306,50000,0,0,0,0,0.00,0.00,0.00,0.00
2014-10-18 21:40:00,2,47050,0,0.00,2,2,0,2,44797,50000,1724,47096,0,0,0,0,0.00,0.00,0.00,0.00
2014-10-18 21:50:00,2,48683,0,0.00,2,2,0,2,44103,50000,1909,50000,0,0,0,0,0.00,0.00,0.00,0.00
2014-10-18 22:00:00,2,49972,0,0.00,2,2,0,2,49719,50000,84,50000,0,0,0,0,0.00,0.00,0.00,0.00
2014-10-18 22:10:00,2,49952,0,0.00,2,2,0,2,49678,50000,103,50000,0,0,0,0,0.00,0.00,0.00,0.00
2014-10-18 22:20:00,2,49704,0,0.00,2,2,0,2,47036,50000,889,50000,0,0,0,0,0.00,0.00,0.00,0.00
2014-10-18 22:30:00,2,49475,0,0.00,2,2,0,2,46649,50000,1099,50000,0,0,0,0,0.00,0.00,0.00,0.00
2014-10-18 22:40:00,2,48492,0,0.00,2,2,0,2,43989,50000,1871,49108,0,0,0,0,0.00,0.00,0.00,0.00
2014-10-18 22:50:00,2,47766,0,0.00,2,2,0,2,41833,50000,2941,48922,0,0,0,0,0.00,0.00,0.00,0.00
2014-10-18 23:00:00,2,47613,0,0.00,2,2,0,2,40609,50000,2966,48796,0,0,0,0,0.00,0.00,0.00,0.00
2014-10-18 23:10:00,2,46011,0,0.00,2,2,0,2,35648,50000,4806,47063,0,0,0,0,0.00,0.00,0.00,0.00
2014-10-18 23:20:00,2,45471,0,0.00,2,2,0,2,37702,50000,3705,46396,0,0,0,0,0.00,0.00,0.00,0.00
2014-10-18 23:30:00,2,48198,0,0.00,2,2,0,2,42031,50000,2455,49598,0,0,0,0,0.00,0.00,0.00,0.00
2014-10-18 23:40:00,2,48898,0,0.00,2,2,0,2,45564,50000,1453,49689,0,0,0,0,0.00,0.00,0.00,0.00
2014-10-18 23:50:00,2,45823,0,0.00,2,2,0,2,35796,50000,4765,47535,0,0,0,0,0.00,0.00,0.00,0.00
